www.pogodaiklimat.ru

Погода и климат >> Архив погоды >> Россия >> Приморский край >> Ольга


ПОГОДА в Ольге

  • Прогноз погоды в Ольге
  • Монитор погоды в Ольге

АРХИВ ПОГОДЫ в Ольге

Время (UTC), дата Ветер
(напр.,м/с)
 
Видим.   Явления Облачность Т
(С)
Тd
(С)
f
(%)
Тe
(С)
Тes
(С)
Комфортность P
(гПа)
Po
(гПа)
Тmin
(С)
Tmax
(С)
R
(мм)
R24
(мм)
S
(см)
12 11.02 СЗ 2 10 км 10/0
[Ac trans Cs]
-8.7 -25.3 25 -13 -13 1026.3 1023.7
15 11.02 штиль 0 10 км 10 баллов -12.9 -26.1 32 -13 -13 1028.0 1025.3
18 11.02 СВ 1 10 км 4 балла -17.0 -24.3 53 -20 -20 1029.4 1026.7
21 11.02 СВ 1 10 км 1/0
[Ci fib]
-22.7 -26.0 74 -26 -26 1028.2 1025.5 -22.9
00 12.02 штиль 0 20 км ясно -15.7 -22.2 57 -16 -12 1028.7 1026.1 -23.6
03 12.02 СЗ 4 20 км 1 балл -8.2 -23.9 27 -14 -10 1027.9 1025.3
06 12.02 З 6-11
{13}
50 км 1/1 1000 м
[Sc diur, vesp]
-8.2 -26.6 21 -16 -15 1026.6 1024.0
09 12.02 З 4
{12}
50 км ясно -10.0 -27.6 22 -17 -17 1029.4 1026.7 -7.7
12 12.02 З 2
{10}
10 км ясно -11.1 -27.1 25 -15 -15 1028.4 1025.8
15 12.02 СЗ 1 10 км ясно -17.7 -27.5 42 -21 -21 1030.8 1028.0
18 12.02 СВ 2 10 км ясно -22.9 -27.3 67 -29 -29 1030.8 1028.0
21 12.02 С 1 10 км ясно -21.2 -27.0 59 -24 -24 1028.8 1026.1 -24.2
00 13.02 З 5 50 км ясно -10.8 -25.9 28 -18 -17 1028.1 1025.6
03 13.02 З 4 50 км ясно -7.3 -25.9 21 -13 -9 1026.6 1024.0
06 13.02 СЗ 4 50 км ясно -5.2 -27.1 16 -11 -9 1025.3 1022.7
09 13.02 З 2 50 км ясно -7.8 -25.3 23 -12 -12 1027.9 1025.3 -5.0
12 13.02 З 2 10 км ясно -9.5 -24.6 28 -14 -14 1029.4 1026.7
15 13.02 З 2 10 км ясно -8.9 -24.5 27 -13 -13 1029.4 1026.7
18 13.02 ЮЗ 1 10 км ясно -10.0 -24.3 30 -12 -12 1030.7 1028.0
21 13.02 З 3 10 км ясно -9.2 -24.7 27 -15 -15 1029.3 1026.7 -15.3
00 14.02 З 5-10
{12}
50 км ясно -7.9 -24.8 24 -15 -13 1029.8 1027.3
03 14.02 З 4 50 км ясно -4.1 -25.5 17 -9 -5 1029.3 1026.7
06 14.02 З 6 50 км ясно -2.2 -27.7 12 -8 -7 1027.9 1025.3
09 14.02 З 2
{11}
50 км ясно -4.1 -26.9 15 -7 -7 1027.9 1025.3 -2.1
12 14.02 СВ 2 10 км ясно -15.6 -26.4 39 -21 -21 1029.4 1026.7
15 14.02 С 1 10 км ясно -19.0 -25.8 55 -22 -22 1028.1 1025.3
18 14.02 З 1 10 км 2 балла -18.0 -24.8 55 -21 -21 1028.0 1025.3
21 14.02 ЮЗ 1 10 км 5/0
[Ac trans Ci fib]
-18.5 -23.7 64 -21 -21 1024.9 1022.3 -22.5
00 15.02 штиль 0 50 км 10/0
[Ac trans Cs]
-12.7 -20.2 53 -13 -10 1023.4 1020.9
03 15.02 ЮЗ 2 50 км мгла ?/? -3.7 -22.3 22 -7 -7 1021.3 1018.7 +13.4
06 15.02 Ю 2 50 км 10 баллов -0.9 -19.4 23 -3 -3 1018.6 1016.0
09 15.02 СЗ 1 20 км 10/0
[As trans]
-2.8 -12.3 48 -4 -4 1017.3 1014.7 -0.9
12 15.02 штиль 0 10 км 10/0
[Cs]
-9.6 -16.7 56 -10 -10 1015.0 1012.5
15 15.02 З 2 10 км 10 баллов -4.6 -17.4 36 -8 -8 1014.6 1012.0
18 15.02 З 2 10 км 10 баллов -5.1 -23.5 22 -8 -8 1014.6 1012.0
21 15.02 ЮЗ 1 10 км 1/0
[Ac trans]
-8.4 -24.8 25 -10 -10 1013.4 1010.9 -9.9
00 16.02 З 3
{11}
20 км ясно -5.6 -22.7 25 -10 -8 1013.8 1011.3
03 16.02 СЗ 3 50 км ясно -1.6 -22.2 19 -5 +1 1013.2 1010.7
06 16.02 З 5 50 км 1 балл -0.5 -21.3 19 -5 -4 1011.8 1009.3
09 16.02 З 5
{11}
50 км ясно -2.4 -20.7 23 -8 -8 1011.8 1009.3 -0.4
12 16.02 З 3-11
{11}
10 км 3/0
[Ac trans Ci fib]
-3.6 -20.8 25 -8 -8 1011.4 1008.9
15 16.02 З 3 10 км 5 баллов -3.4 -21.0 24 -8 -8 1011.9 1009.3
18 16.02 З 4 10 км 2 балла -3.9 -21.5 24 -9 -9 1011.9 1009.3
21 16.02 З 4
{12}
10 км 10/3 1000 м
[Sc Ac trans]
-4.4 -21.1 26 -10 -10 1011.0 1008.5 -4.5
00 17.02 СЗ 1
{10}
50 км 8/0
[Ac trans Cc]
-3.9 -20.5 26 -5 -3 1012.1 1009.6 -4.6
03 17.02 З 3 50 км ясно +2.3 -18.9 19 -1 +6 1011.8 1009.3
06 17.02 З 5 50 км 2 балла +4.2 -18.0 18 +1 +2 1010.5 1008.0
09 17.02 З 2
{13}
50 км 1/0
[Ac lent]
+1.7 -18.8 20 -0 -0 1011.8 1009.3 +4.6
12 17.02 З 2 10 км ясно +0.9 -18.4 22 -1 -1 1013.2 1010.7
15 17.02 З 4 10 км ясно -0.1 -17.3 26 -4 -4 1015.8 1013.3
18 17.02 З 2 10 км ясно -1.3 -16.6 30 -4 -4 1017.3 1014.7
21 17.02 З 2 10 км ясно -2.0 -16.6 32 -5 -5 1019.3 1016.9 -2.4
00 18.02 ЮЗ 2 50 км ясно -1.9 -15.9 33 -5 -2 1021.8 1019.3 -11.3
03 18.02 Ю 3 50 км ясно +4.1 -16.3 21 +2 +8 1021.2 1018.7
06 18.02 Ю 5 50 км ясно +3.6 -12.3 30 -0 +1 1021.2 1018.7

 

Местоположение метеостанции Ольга (Приморский край, Россия): широта 43.75 долгота 135.30 высота над уровнем моря 20 м.

В архиве по умолчанию представлена погода в Ольге за последнюю неделю. Архивные данные за месяц целиком и за предыдущие месяцы, начиная с января 2011 года, Вы можете получить, выбрав интересующий диапазон дат из раскрывающегося списка и нажав кнопку "Ввод!".


*Определитесь, кто Вы:
робот инопланетянин человек

Внимание! Время в таблицах - всемирное. Для получения местного времени необходимо прибавить поправку, которая равна 10 ч.

Смотрите также архив погоды в соседних городах и на ближайших метеорологических станциях:

Погода в Дальнегорске (Приморский край, Россия) (31 км)
Погода в Богополе (Приморский край, Россия) (56 км)
Погода в Кавалерово (Приморский край, Россия) (61 км)
Погода в Рудной Пристани (Приморский край, Россия) (80 км)
Погода в Лучегорске (Приморский край, Россия) (81 км)
Погода в Лазо (Приморский край, Россия) (127 км)
Погода в Чугуевке (Приморский край, Россия) (128 км)
Погода в Преображении (Приморский край, Россия) (148 км)
Погода в Тернее (Приморский край, Россия) (173 км)
Погода в Анучино (Приморский край, Россия) (186 км)

Пояснения к столбцам:

Ветер - указаны скорость ветра в м/с - средняя за 10 мин, порывы в срок и между сроками (в фигурных скобках) и направление, откуда дует ветер: С - северный, СВ - северо-восточный, В - восточный, ЮВ - юго-восточный, Ю - южный, ЮЗ - юго-западный, З - западный, СЗ - северо-западный.
Видимость - горизонтальная дальность видимости в метрах или километрах. При видимости от 1 до 10 км при отсутствии осадков обычно наблюдается дымка, при ухудшении видимости до 1 км и менее - туман. В сухую погоду видимость может ухудшаться дымом, пылью или мглою.
Явления - указаны атмосферные явления, наблюдавшиеся в срок или в последний час перед сроком; фигурными скобками обозначены явления, наблюдавшиеся между сроками (за 1-3 часа до срока); квадратными скобками обозначены град или гололедные отложения с указанием их диаметра в мм.
Облачность - указаны через наклонную черту общая и нижняя облачность в баллах и высота нижней границы облаков в метрах; квадратными скобками обозначены формы облаков: Ci - перистые, Cs - перисто-слоистые, Cc - перисто-кучевые, Ac - высококучевые, As - высокослоистые, Sc - слоисто-кучевые, Ns - слоисто-дождевые, Cu - кучевые, Cb - кучево-дождевые. Подробнее классификацию облаков см. в Атласе облаков (PDF).
T - Температура воздуха - температура, измеренная на высоте 2 м над землей.
Td - Температура точки росы - температура, при понижении до которой содержащийся в воздухе водяной пар достигнет насыщения.
f - Относительная влажность воздуха - влажноcть воздуха, измеренная на высоте 2 м над землей.
Te - Эффективная температура - температура, которую ощущает одетый по сезону человек в тени. Характеристика душности погоды. При расчете учитывается влияние влажности воздуха и скорости ветра на теплоощущения человека.
Tes - Эффективная температура на солнце - температура, которую ощущает человек, с поправкой на солнечный нагрев. Характеристика знойности погоды. Зависит от высоты солнца над горизонтом, облачности и скорости ветра. Ночью, в пасмурную погоду, а также при ветре 12 м/с и более поправка равна нулю.
P - Атмосферное давление - приведенное к уровню моря атмосферное давление.
Po - Атмосферное давление - измеренное на уровне метеостанции атмосферное давление.
Tmin - Минимальная температура - минимум температуры воздуха на высоте 2 м над землей.
Tmax - Максимальная температура - максимум температуры воздуха на высоте 2 м над землей.
R - Количество осадков - Количество выпавших осадков за период времени, мм. При наведении курсора мыши на число - период времени, за который выпало указанное количество осадков.
R24 - Количество осадков - Количество выпавших осадков за 24 часа, мм.
S - Снежный покров - Высота снежного покрова, см. При наведении курсора мыши на число - состояние снежного покрова и степень покрытия местности в баллах.